Vertical_Velocity
-1 -2 -1 -1 -1 0 -1 -1 -1 -1 -2 -0 -1 -1 -0 -3 -3 -2 -1 -1 1 -1
2 1 1 -1 -2 -1 -0 -1 -0 1 2 1 0 0 -0 -0 -3 -3 -3 -4 -2 -1
1 -1 -1 -2 -0 -1 -0 1 1 0 -0 0 0 -1 -1 -1 -0 -1 1 -1 -2 -2
-1 0 0 1 2 1 1 -0 -1 -1 -0 -0 0 1 1 1 1 1 0 2 -0 -1
2 -1 -2 -3 -2 -1 -0 -1 -2 -1 0 0 -1 -2 -1 -1 -0 -1 -1 -1 -1 -1
1 -2 -1 -1 -1 -2 -4 -3 -1 -2 -3 -2 -1 -1 -1 -4 -2 -1 -0 -1 -1 1
2 1 2 1 1 -1 -0 1 2 1 2 3 1 0 -1 -2 -1 2 1 1 0 -1
-0 -0 1 0 0 1 1 1 1 -0 2 -0 -1 0 -0 2 3 -0 -0 -0 0 -1
-0 1 1 0 0 1 2 2 1 -1 -3 0 -1 -1 -1 -2 -2 1 -1 0 0 0
-3 -4 -2 0 0 1 2 1 -0 0 0 1 2 0 -1 1 0 -1 -1 -1 0 -0
3 2 -0 -2 -3 -3 -2 -2 -1 2 2 -2 3 -1 -1 -0 -2 -2 1 2 1 -1
-1 2 5 7 6 5 2 3 0 0 0 -3 3 2 2 1 -1 -4 -2 -0 3 1
-0 1 1 -2 -2 -1 -3 -3 -2 -2 2 2 -3 5 2 3 -1 -2 0 2 1 3
-2 -2 -2 -2 -1 -2 -1 1 1 -1 1 1 3 1 1 2 -0 -2 -3 -2 1 3
Height
1481 1480 1478 1476 1474 1473 1471 1469 1467 1464 1462 1459 1457 1455 1453 1451 1451 1451 1451 1451 1451 1450
1477 1475 1473 1472 1471 1469 1467 1465 1463 1461 1459 1457 1454 1452 1450 1449 1447 1447 1447 1447 1447 1446
1474 1472 1470 1468 1467 1465 1464 1462 1460 1458 1455 1453 1451 1449 1447 1445 1445 1443 1442 1442 1442 1441
1470 1468 1466 1464 1463 1461 1460 1458 1456 1454 1452 1450 1448 1446 1444 1442 1441 1439 1438 1438 1436 1435
1465 1463 1461 1460 1459 1457 1456 1454 1452 1450 1448 1446 1444 1443 1441 1439 1438 1436 1434 1433 1432 1430
1461 1459 1457 1455 1454 1452 1450 1449 1448 1446 1444 1442 1441 1439 1437 1435 1434 1432 1430 1429 1427 1426
1458 1455 1453 1451 1449 1448 1446 1444 1443 1441 1439 1437 1436 1434 1432 1431 1429 1427 1425 1424 1422 1420
1456 1453 1451 1449 1446 1444 1442 1440 1438 1437 1435 1433 1431 1430 1428 1426 1424 1422 1420 1419 1417 1415
1455 1451 1448 1446 1444 1442 1439 1436 1434 1432 1430 1427 1425 1424 1422 1420 1418 1416 1415 1413 1411 1410
1451 1449 1446 1443 1441 1438 1435 1432 1430 1428 1425 1422 1420 1419 1417 1415 1413 1411 1409 1407 1406 1404
1449 1445 1442 1439 1436 1434 1431 1428 1425 1423 1420 1417 1415 1413 1411 1409 1407 1405 1403 1401 1400 1398
1446 1443 1439 1435 1431 1428 1425 1423 1420 1418 1415 1412 1409 1407 1405 1401 1399 1397 1396 1395 1394 1392
1444 1440 1436 1432 1429 1425 1421 1418 1415 1412 1410 1407 1404 1402 1399 1396 1392 1388 1387 1387 1386 1385
1440 1437 1433 1429 1425 1421 1417 1413 1410 1407 1404 1401 1398 1396 1393 1389 1385 1382 1379 1378 1376 1377